Date,TemperatureHighF,TemperatureAvgF,TemperatureLowF,DewpointHighF,DewpointAvgF,DewpointLowF,HumidityHigh,HumidityAvg,HumidityLow,PressureMaxIn,PressureMinIn,WindSpeedMaxMPH,WindSpeedAvgMPH,GustSpeedMaxMPH,PrecipitationSumIn
2013-2-1,45,41,34,44,37,31,94,85,73,29.89,29.44,19,8,19,0.00
2013-2-2,46,37,30,39,33,29,99,85,65,30.27,29.91,10,2,11,0.00
2013-2-3,52,48,41,51,47,38,99,97,87,30.12,29.86,14,9,17,0.11
2013-2-4,50,43,34,49,39,33,99,87,73,29.91,29.64,21,11,21,0.06
2013-2-5,45,38,32,42,36,31,98,91,81,29.67,29.37,21,10,21,0.01
2013-2-6,45,39,33,36,33,31,94,81,63,30.24,29.74,14,5,14,0.00
2013-2-7,45,39,33,44,38,32,99,98,93,30.22,29.84,14,5,14,0.19
2013-2-8,48,42,38,45,41,37,99,95,88,30.28,30.16,8,3,8,0.00
2013-2-9,52,46,42,50,45,42,99,95,84,30.17,29.68,8,4,11,0.07
2013-2-10,46,43,40,45,43,40,99,99,98,29.63,29.18,5,2,5,0.65
2013-2-11,41,40,39,41,39,38,99,97,89,29.78,29.22,5,3,5,0.04
2013-2-12,43,41,39,42,40,39,99,96,89,29.98,29.79,6,3,7,0.01
2013-2-13,54,48,42,52,47,41,99,96,90,29.92,29.60,17,6,17,0.15
2013-2-14,53,45,41,46,42,40,99,92,74,29.98,29.65,14,7,14,0.01
2013-2-15,53,44,37,46,40,37,99,89,68,30.11,29.99,8,3,8,0.01
2013-2-16,57,49,43,50,45,40,98,86,73,30.06,30.00,8,3,11,0.00
2013-2-17,50,47,44,43,41,37,86,80,71,29.99,29.91,16,7,16,0.00
2013-2-18,50,44,41,39,37,34,89,78,64,30.05,29.91,12,6,12,0.00
2013-2-19,50,39,29,43,36,28,99,90,70,30.04,29.95,8,3,8,0.00
2013-2-20,49,41,32,41,37,31,99,87,70,30.11,29.99,12,5,13,0.00
2013-2-21,42,38,35,34,30,28,82,74,64,30.15,30.07,17,8,17,0.00
2013-2-22,38,36,34,30,27,25,75,70,63,30.23,30.10,9,4,9,0.00
2013-2-23,38,36,34,33,30,26,88,80,67,30.30,30.19,6,2,8,0.00
2013-2-24,43,37,30,37,33,27,97,86,76,30.43,30.28,5,1,5,0.01
2013-2-25,47,37,29,39,33,28,99,85,65,30.54,30.41,5,2,5,0.01
2013-2-26,45,40,32,39,37,31,99,90,76,30.64,30.49,11,3,11,0.00
2013-2-27,48,42,38,40,38,35,93,86,73,30.62,30.53,7,3,7,0.00
2013-2-28,46,39,34,42,37,33,98,92,82,30.57,30.42,5,2,5,0.00